CYYHCYGT

Guest
Details From CYYH - TALOYOAK
To CYGT - Igloolik
Flight Number -
Tags generated
Created
Modified
Stats Distance 258 nm / 478 km
Max Altitude 27,200 ft / 8,291 m
Waypoints 4
Social Downloads 0
Likes 0
Share VATSIM

Download

Looking for another format? Having issues loading an existing format? Contact us
Advertisement - Login to hide

Notes

Basic altitude profile: - Ascent Rate: 300ft/min - Ascent Speed: 120kts - Cruise Altitude: 30ft - Cruise Speed: 160kts - Descent Rate: 600ft/min - Descent Speed: 160kts Options: - Use NATs: no - Use PACOTS: no - Use low airways: no - Use high airways: no

Route

CYYH 7000N09000W 7000N08500W CYGT

ID Type Via Altitude Latitude Longitude Leg Dist Tot Dist Heading (true) Name
O CYYH APT - 0 ft / 0 m 69.54611˚ -93.57611˚ - 0 nm - TALOYOAK
7000N09000W LATLON - 27,200 ft / 8,291 m 70.00000˚ -90.00000˚ 79 nm 79 nm 68° / 72° -
7000N08500W LATLON - 15,400 ft / 4,694 m 70.00000˚ -85.00000˚ 102 nm 181 nm 88° / 92° -
O CYGT APT - 0 ft / 0 m 69.36482˚ -81.81709˚ 76 nm 258 nm 118° / 121° Igloolik

Altitude Profile

Advertisement - Login to hide

Weather


0- 5 10 15 20 25 30 35+ Temperature / ° C

Clouds and Precipitation
Forecast for 2018-06-18 12:00 UTC. Updated 5 hours ago

Ground ~20,000 ft ~40,000 ft Winds

CYYH

Details ICAO CYYH (YYH)
Name TALOYOAK
Region Canada
Timezone America/Cambridge_Bay (UTC-6.0)
Stats Elevation 92 ft / 28 m (AMSL)
Location 69.546111° -93.576113°
Runways 1
Magnetic Variation 12.399° W

METAR

CYYH 181400Z 28011KT 15SM VCFG FEW002 BKN010 02/00 A2972 RMK ST1ST6 SLP068

Decode

TAF

TAF CYYH 181138Z 1812/1824 28015KT P6SM SCT008 BKN020 TEMPO 1812/1815 2SM -DZ BR BKN005 OVC020 FM181500 27015KT P6SM SCT012 BKN025 TEMPO 1815/1818 FEW005 BKN008 OVC020 FM181800 31015KT P6SM SCT015 BKN030 TEMPO 1818/1824 FEW008 BKN015 OVC030 RMK NXT FCST BY 181800Z

Decode

Departure Runways

ID Width Length Bearing (true) Bearing (mag) Surface Threshold Offset Overrun Length
15T 100 ft / 30 m 4,008 ft / 1,222 m 151.85° 164.25° Gravel 0 ft / 0 m 0 ft / 0 m
33T 100 ft / 30 m 4,008 ft / 1,222 m 331.87° 344.27° Gravel 0 ft / 0 m 0 ft / 0 m

CYGT

Details ICAO CYGT (YGT)
Name Igloolik
Region Canada
Timezone America/Iqaluit (UTC-4.0)
Stats Elevation 98 ft / 30 m (AMSL)
Location 69.364817° -81.817087°
Runways 1
Magnetic Variation 27.575° W

METAR

CYGT 181400Z 28015KT 15SM BKN016 OVC025 02/00 A2955 RMK SC5SC3 SLP011

Decode

TAF

TAF CYGT 181138Z 1812/1822 30015KT P6SM FEW015 SCT050 TEMPO 1812/1813 BKN015 OVC050 FM181300 29015KT P6SM BKN015 TEMPO 1813/1822 BKN025 RMK NXT FCST BY 181900Z

Decode

Destination Runways

ID Width Length Bearing (true) Bearing (mag) Surface Threshold Offset Overrun Length
15 98 ft / 30 m 4,502 ft / 1,372 m 145.64° 173.22° Dirt 0 ft / 0 m 0 ft / 0 m
33 98 ft / 30 m 4,502 ft / 1,372 m 325.65° 353.23° Dirt 0 ft / 0 m 0 ft / 0 m

Popular Alternatives